星链-35190(STARLINK-35190)

导读

STARLINK-35190是美国于2025年9月19日发射的星链卫星,隶属于SpaceX公司打造的星链星座项目。该项目旨在为全球提供高速低延迟互联网覆盖,服务包括偏远地区网络接入、航海航空联网等场景,此次发射是星链系统持续扩容部署的一环,助力完善全球卫星互联网组网规模。

基本信息
目录编号:
65663
目录名称:
STARLINK-35190
国际标识:
2025-211M
轨道中心:
EARTH
卫星名称:
星链-35190
卫星全名:
星链-35190(STARLINK-35190)
卫星状态:
在轨 (已飞行350 天)
发射日期:
2025-09-19 UTC
国别 :
美国 (US)
星等 :
--
轨道信息
数据来源 国际轨道数据 AOE轨道数据
星历时间 2026-09-03T22:01:57+0800
14小时前
查看轨道信息
2026-09-01T00:00:00+0800
3天前
查看轨道信息
半长轴 6843.66km 6843.569km
偏心率 0.0000534 0.0000733
轨道倾角 97.282° 97.282°
近地点辐角 102.163° 91.148°
升交点赤经 287.098° 284.223°
平近点角 257.968° 10.946°
近地点 465.157km 464.93km
远地点 465.889km 465.934km
周期 93.906分钟 93.904分钟
每日圈数 15.33452 15.334827
详细信息
固有亮度:
5
最大亮度:
2.5
卫星平台:
Starlink V1.0
覆盖范围:
全球
运营商:
太空探索技术公司
运营商所在国:
美国
制造商(研发单位):
太空探索技术公司
制造商所在国:
美国
使用方式:
暂无
卫星简介
Starlink 计划是 SpaceX 推出的全球卫星互联网项目,通过发射低轨道卫星,为全球尤其是偏远地区提供高速、低延迟的互联网服务。自 2019 年起,Starlink 已部署数千颗卫星,旨在缩小全球数字鸿沟,推动互联网普及。该项目还为军事、航空等行业提供通信支持,带来广泛经济效益。
2D轨道图
3D轨道图
轨道高度分析图
轨道倾角分析图
轨道综合分析图
查看轨道综合分析图
交会数据列表
事件ID 空间交会对象 最接近时刻(TCA) 交会距离 交会风险概率(CRP) 交会风险指数(CRI) 操作
CDM_260829-132406-474806-566322
2026-08-29T
13:24:42+0000
2.209 km
极远距离
2.24795E-6 低风险 0.42
CDM_260904-114905-357006-566321
2026-09-04T
11:49:22+0000
2.070 km
极远距离
1.618493E-6 低风险 0.39
CDM_260827-225905-811106-566322
2026-08-27T
22:59:46+0000
2.801 km
极远距离
1.458884E-6 低风险 0.38
CDM_260903-191704-865706-566321
2026-09-03T
19:17:14+0000
2.842 km
极远距离
1.164485E-6 低风险 0.36